Regional Weather Roundup
Issued by NWS Mobile, AL

Home | Current Version | Previous Version | Text Only | Print | Product List | Glossary On
Versions: 1 2 3 4 5 6 7 8 9 10 11 12 13 14 15 16 17 18 19 20 21 22 23 24 25 26 27 28
000
ASUS44 KMOB 232110
RWRMOB
REGIONAL WEATHER ROUNDUP
NATIONAL WEATHER SERVICE MOBILE AL
400 PM CDT WED APR 23 2014

NOTE: "FAIR" INDICATES FEW OR NO CLOUDS BELOW 12,000 FEET WITH NO
      SIGNIFICANT WEATHER AND/OR OBSTRUCTIONS TO VISIBILITY.

  * THESE STATIONS ARE PART OF THE UNIVERSITY OF SOUTH ALABAMA
    MESONET AND ARE NOT UNDER NWS OR FAA QUALITY CONTROL.

ALZ061>064-232200-
COASTAL ALABAMA

CITY           SKY/WX    TMP DP  RH WIND       PRES   REMARKS
MOBILE REG APT MOSUNNY   80  64  58 SE7       29.90F
BROOKLEY FIELD MOSUNNY   79  65  62 S9        29.91F
USA CAMPUS*      N/A     79  63  57 SE2       29.89
DOG RIVER*     NOT AVBL


CITY           SKY/WX    TMP DP  RH WIND       PRES   REMARKS
MOUNT VERNON*  NOT AVBL
SARALAND*      NOT AVBL
BAY MINETTE*   NOT AVBL
LOXLEY*        NOT AVBL
ROBERTSDALE*   NOT AVBL
FAIRHOPE*      NOT AVBL
ELBERTA*       NOT AVBL
FOLEY*         NOT AVBL
GRAND BAY*     NOT AVBL
DAUPHIN ISLND* NOT AVBL
BON SCOUR NWR* NOT AVBL
GULF SHORES    SUNNY     75  65  69 SW6       29.90F

$$

ALZ051>060-232200-
INTERIOR SOUTHWEST AND SOUTH CENTRAL ALABAMA

CITY           SKY/WX    TMP DP  RH WIND       PRES   REMARKS
GREENVILLE     PTSUNNY   81  54  39 N8        29.89F
EVERGREEN      SUNNY     83  54  36 W3        29.91F
CASTLEBERRY*   NOT AVBL
ATMORE*          N/A     84  55  37 CALM      29.91F
DIXIE*         NOT AVBL
ANDALUSIA/OPP  MOSUNNY   88  55  32 NE5       29.89F
ANDALUSIA*     NOT AVBL
FLORALA APT    MOSUNNY   81  58  45 NE5       29.90F
FLORALA*         N/A     79  57  47 CALM      29.86F

$$

FLZ001>006-232200-
WESTERN FLORIDA PANHANDLE

CITY           SKY/WX    TMP DP  RH WIND       PRES   REMARKS
PENSACOLA      MOSUNNY   80  62  54 S10       29.90F
NAS PENSACOLA  MOSUNNY   75  65  70 S13       29.90F
MILTON         MOSUNNY   80  63  55 S8        29.89F
WHTNG S FIELD  PTSUNNY   82  64  54 S7        29.89F


CITY           SKY/WX    TMP DP  RH WIND       PRES   REMARKS
WALNUT HILL*   NOT AVBL
JAY*           NOT AVBL
DUKE FIELD     PTSUNNY   83  62  50 SW6       29.87F
CRESTVIEW      PTSUNNY   85  58  39 N6        29.90F
VALPARAISO     MOSUNNY   78  65  64 SW13      29.89F
DESTIN         SUNNY     75  65  70 SW10      29.90F

$$

MSZ076-079-232200-
INTERIOR SOUTHEAST MISSISSIPPI

CITY           SKY/WX    TMP DP  RH WIND       PRES   REMARKS
LEAKESVILLE*     N/A     82  54  36 CALM      29.90F
AGRICOLA*      NOT AVBL

$$

MARINE OBSERVATIONS

STATION/POSITION TIME  TEMP    WIND        PRES    WAVE
                       AIR SEA DIR/SP/G            HT/PER
                 (UTC) (F)     (DEG/KT/KT) (MB)    (FT/S)
PASCAGOULA       2100   74     190/  7/ 10 1012.5F
PETIT BOIS ISLND 2100   74     210/  7/  8 1013.1F
GRAND BAY        1900   72     200/  9     1015.0S
KATRINA CUT      2000   73     210/  9     1014.2F
CEDAR POINT      2000   72     200/ 10     1013.2F
E DAUPHIN ISLAND 2100   74     200/  5/  8 1012.3F
MIDDLE BAY LIGHT 2000   72     190/ 12     1012.9S
USCG MOBILE BAY  2100   77 69  170/  8/ 12 1011.3F
STATE DOCKS      2100   73 65              1012.2F
MEAHER PARK      2000   72     180/ 11     1012.2F
WEEKS BAY        1900   75                   N/A
FORT MORGAN      2100   74     220/  8/  9 1012.6F
12 S ORANGE BCH  2100   70 72  200/  8/ 10 1012.9F   1
PENSACOLA BAY    2100   77 72   CALM  /  4 1012.9F
64 S DAUPHIN ISL 1951   71 73   CALM  /  4 1013.7F
67 S FORT MORGAN 2000   71                 1013.5F

$$

SELECTED LOCATIONS ACROSS THE REGION

CITY           SKY/WX    TMP DP  RH WIND       PRES   REMARKS
NEW ORLEANS    MOSUNNY   82  57  42 VRB3      29.91F
GULFPORT       SUNNY     79  63  57 S7        29.90F
PASCAGOULA AP  SUNNY     78  65  63 SW7       29.90F
PASCAGOULA*      N/A     75  66  73 SW7       29.91F
HATTIESBURG    SUNNY     83  52  34 NW3       29.90F
LAUREL         MOSUNNY   81  52  36 CALM      29.92F
MERIDIAN       SUNNY     80  50  34 CALM      29.92F
JACKSON        SUNNY     80  46  30 CALM      29.92F
MONTGOMERY     SUNNY     83  51  33 VRB3      29.90F
TROY           PTSUNNY   80  54  40 NW5       29.90F
KINSTON*       NOT AVBL
GENEVA*          N/A     82  57  42 N8        29.90
ASHFORD*       NOT AVBL
DOTHAN         MOSUNNY   83  55  38 NW9       29.92F
PANAMA CITY    MOSUNNY   79  63  57 S12       29.87F

$$




USA.gov is the U.S. government's official web portal to all federal, state and local government web resources and services.